sat.trackr.live / text

‹ back to catalog

ONEWEB-0066

NORAD 45424 · 2020-020A

PAYLOAD ACTIVE UNKNOWN

§ Identity

Operator
Country
UK
Launch date
2020-03-21
Launch site
TYMSC
Launch vehicle
Mass (kg)
RCS (m²)

Purposes: comms

External: N2YO · Heavens-Above · Gunter

§ Orbital elements

Epoch: 2026-09-20T05:05:58.203744Z

Period
109.81 min
Inclination
87.8965°
Eccentricity
0.0001882
Mean motion
13.11414194 rev/d
Perigee alt
1,216.3 km
Apogee alt
1,219.1 km
Semi-major
7,595.8 km
B*
-2.7853e-4
RAAN
2.1786°
Arg perigee
97.7571°
Mean anomaly
262.3770°
Rev number
31,513

§ Raw data

ONEWEB-00661 45424U 20020A   26263.21247921 -.00000086  00000+0 -27853-3 0  99932 45424  87.8965   2.1786 0001882  97.7571 262.3770 13.11414194315132

JSON: /api/v1/satellites/45424 · /tle

For live sub-satellite position, see the globe view (requires WebGL).

§ Visibility from observer

Set your observer location to see the next 7 days of passes ≥ 10°. The values pass through the URL so the page stays shareable.

No JS? Fill the form by hand. The geolocation button needs JavaScript.